Zurück zum Katalog

CZ-4B DEB

AktivPO
NORAD 37573·DEBRIS·🇨🇳 China

Gestartet May 27, 2008 von Taiyuan Satellite Launch Center

Loading…

Nächste Überflüge (nächste 24 Stunden)

TLE

AktuellSource: Space-Track

Epoche: Sep 14, 2026, 07:19 UTC

1 37573U 08026E   26257.30523328  .00000259  00000-0  23048-3 0  9995
2 37573  98.7189 289.5264 0219355 211.2538 209.2849 13.82324885904261

Verfolge CZ-4B DEB in Echtzeit mit AllMySat

Download on the App Store